Regional Weather Roundup
Issued by NWS Charleston, WV

Home | Current Version | Previous Version | Graphics & Text | Print | Product List | Glossary On
Versions: 1 2 3 4 5 6 7 8 9 10 11 12 13 14 15 16 17 18 19 20 21 22 23 24 25 26 27 28 29 30 31 32 33 34 35 36 37 38 39 40 41 42 43 44 45 46 47 48 49 50
000
ASUS41 KRLX 061910
RWRRLX
West Virginia Regional Weather Roundup
National Weather Service Charleston WV
300 PM EDT MON JUL 06 2015

Note: "fair" indicates few or no clouds below 12,000 feet with no
significant weather and/or obstructions to visibility.

WVZ003-062000-
Northern Panhandle of West Virginia

CITY           SKY/WX    TMP DP  RH WIND       PRES   REMARKS
WHEELING       CLOUDY    79  68  69 SE6       30.05F
$$

WVZ009-062000-
Northwest West Virginia

CITY           SKY/WX    TMP DP  RH WIND       PRES   REMARKS
PARKERSBURG    MOSUNNY   82  68  62 SW5       30.07F
$$

WVZ006-062000-
Western West Virginia

CITY           SKY/WX    TMP DP  RH WIND       PRES   REMARKS
HUNTINGTON     PTSUNNY   81  67  62 W8        30.07F
$$

WVZ015-062000-
West Central West Virginia

CITY           SKY/WX    TMP DP  RH WIND       PRES   REMARKS
CHARLESTON     LGT RAIN  76  68  76 SW8       30.09S
$$

WVZ022-031-062000-
North Central West Virginia

CITY           SKY/WX    TMP DP  RH WIND       PRES   REMARKS
CLARKSBURG     PTSUNNY   78  68  71 W3        30.06F
MORGANTOWN     CLOUDY    81  65  58 CALM      30.06F
$$

WVZ025-035-042-045-062000-
Southern West Virginia

CITY           SKY/WX    TMP DP  RH WIND       PRES   REMARKS
BECKLEY        CLOUDY    71  63  75 W9        30.17F
LOGAN            N/A     73  68  83 VRB3      30.11F HAZE
BLUEFIELD      PTSUNNY   74  62  66 W14G22    30.20S
LEWISBURG      PTSUNNY   74  67  76 SW8       30.14S
$$

WVZ047-062000-
Northern Mountains of West Virginia

CITY           SKY/WX    TMP DP  RH WIND       PRES   REMARKS
ELKINS         PTSUNNY   75  65  70 CALM      30.10F
$$

WVZ052-062000-
Eastern Panhandle of West Virginia

CITY           SKY/WX    TMP DP  RH WIND       PRES   REMARKS
MARTINSBURG    PTSUNNY   83  69  62 S10       30.06F
PETERSBURG     HVY RAIN  77  69  76 W8        30.07R
$$


USA.gov is the U.S. government's official web portal to all federal, state and local government web resources and services.